BEIDOU-3S IGSO-1S

Last updated on Wed Mar 11 2026 00:02:53 GMT+0000 (Coordinated Universal Time)

1 40549U 15019A 26069.57346053 -.00000151 00000+0 00000+0 0 9990 2 40549 49.3785 296.6493 0035504 190.4335 344.0486 1.00273136 40085
UTC large
Height (km)
Speed (km/s)
/
Latitude / Longitude
Inclination (degrees)
Orbital Period (minutes)
Azimuth
Elevation
Range (km)
Doppler Factor

Next 0 passes for location: London (51.5072 / 0.1276)

Sorry there are no passes over London.